Location: Candresse
(43.7134°N, 0.9780°W)
Time: 17:07:32
(UTC+00:00)

Daily predictions for brighter satellites

Satellite Brightness Start Highest point End
(mag) Time Altitude Azimuth Time Altitude Azimuth Time Altitude Azimuth
Cosmos 2297 Rocket 2.5 17:54:40 10° S 18:00:02 47° ESE 18:05:26 10° NE
Lacrosse 5 rocket 3.2 17:59:39 10° WNW 18:02:02 17° NNW 18:04:27 10° NNE
COSMO-SKYMED 1 3.2 17:58:32 10° NNE 18:02:16 32° E 18:05:57 10° SSE
SPOT 1/Viking Rocket 3.5 18:00:06 10° SSE 18:05:13 80° ENE 18:10:21 10° N
CZ-2D R/B 3.8 18:04:33 10° SE 18:08:11 39° ENE 18:11:55 10° N
Aureole 3 Rocket 3.2 18:05:32 10° N 18:08:54 31° ENE 18:11:44 10° SE
Cosmos 2061 Rocket 4.0 18:02:41 10° N 18:09:03 70° E 18:15:19 10° SSE
Cosmos 192 4.4 18:05:12 10° NNW 18:10:06 86° WSW 18:14:59 10° SSE
CZ-4C R/B 2.5 18:07:22 10° WSW 18:11:26 51° NW 18:16:35 10° NNE
Meteor 2-1 Rocket 4.3 18:05:37 10° N 18:11:26 69° ENE 18:17:19 10° SSE
Okean 1 Rocket 3.0 18:09:38 10° N 18:14:00 63° E 18:18:18 10° SSE
Cosmos 1356 Rocket 3.5 18:10:27 10° NNW 18:14:24 78° W 18:18:22 10° S
SL-16 R/B 4.4 18:09:21 10° N 18:14:37 30° WNW 18:19:54 10° WSW
Cosmos 2344 4.4 18:10:46 10° SSE 18:17:22 27° ESE 18:23:13 10° ENE
Cosmos 2221 Rocket 3.5 18:13:53 10° S 18:18:19 72° E 18:22:49 10° NNE
Okean 2 Rocket 3.0 18:14:52 10° N 18:19:16 85° E 18:23:38 10° S
USA 267 4.0 18:16:35 10° NE 18:22:49 48° NNW 18:29:02 10° W
SJ-6B 3.9 18:20:46 10° ESE 18:23:10 18° ENE 18:25:35 10° NNE
IRS-P3 4.4 18:18:23 10° S 18:23:41 75° WSW 18:29:02 10° NNW
Cosmos 2263 Rocket 3.4 18:24:43 10° SE 18:28:41 20° E 18:31:44 13° ENE
Cosmos 1025 Rocket 3.4 18:24:38 10° SSW 18:28:54 67° W 18:33:13 10° N
ATLAS 5 CENTAUR R/B 4.1 18:25:08 10° WNW 18:29:06 28° WSW 18:33:47 10° S
Cosmos 1980 3.7 18:25:45 10° NNW 18:31:24 66° ENE 18:37:00 10° SE
Sich 1 Rocket 3.7 18:29:43 10° N 18:34:17 83° W 18:38:50 10° S
COSMOS 2428 3.6 18:29:05 10° NNW 18:34:40 55° WSW 18:40:12 10° S
Cosmos 2237 Rocket 2.2 18:31:01 10° NNW 18:36:42 68° ENE 18:42:21 10° SE
SKYMED 2 4.3 18:34:40 10° N 18:38:56 56° WNW 18:43:10 10° SSW
SJ-7 4.0 18:35:51 10° SSE 18:39:31 76° ENE 18:43:12 10° N
Meteor 1-27 4.3 18:33:48 10° N 18:39:31 59° ENE 18:45:15 10° SSE
Resurs 1-3 3.8 18:35:33 10° S 18:39:50 72° WSW 18:44:08 10° NNW
SeaSat 1 3.1 18:36:10 10° SSE 18:40:57 57° WSW 18:45:48 10° NW
Cosmos 1570 Rocket 3.9 18:36:06 10° SSW 18:41:22 78° ESE 18:46:38 10° NNE
Resurs 01 Rocket 1.7 18:38:05 10° SSE 18:42:19 51° ENE 18:46:36 10° N
Cosmos 1125 Rocket 3.7 18:37:46 10° NNW 18:42:57 73° WSW 18:48:07 10° SSE
SPOT 5 4.0 18:45:52 21° E 18:46:55 23° ENE 18:50:47 10° NNE
DMSP B5D1-3 4.4 18:49:40 10° NNE 18:54:46 70° ESE 18:59:52 10° S
Tiangong -1.5 18:51:48 10° WSW 18:54:51 44° SSE 18:55:41 35° SE
Spot 4 Rocket 4.3 18:52:48 10° S 18:57:53 71° WSW 19:03:00 10° NNW
NOAA 6 4.0 18:53:01 10° SSE 18:58:09 86° WSW 19:03:21 10° NNW
USA 234 4.1 18:52:44 10° SSE 18:59:03 51° SW 19:05:25 10° WNW
Cosmos 2227 Rocket 2.2 18:53:46 10° S 18:59:17 60° ESE 19:04:51 10° NNE
Cosmos 773 Rocket 4.0 18:56:59 10° SSW 19:02:15 90° NNW 19:07:34 10° NNE
SL-16 R/B 2.9 18:57:20 10° N 19:02:26 33° NE 19:03:58 29° E
Cosmos 2208 Rocket 3.9 18:57:15 10° SSW 19:02:28 85° ESE 19:07:48 10° NNE
Cosmos 1346 Rocket 2.8 18:59:10 10° SSE 19:02:35 42° E 19:02:49 42° E
CARTOSAT-1 3.7 18:58:55 10° S 19:03:06 70° W 19:07:18 10° NNW
CZ-4 R/B 3.7 19:17:56 10° NNE 19:17:56 10° NNE 19:17:58 10° NNE
BREEZE-M DEB (TANK) 4.2 19:14:18 10° WNW 19:18:27 89° NNE 19:26:43 22° ESE
ARIANE 6 FM1 Upper Stage 4.1 19:18:46 10° NNW 19:21:05 22° NNE 19:21:05 22° NNE
Gbstr 26 Del rocket 4.3 19:16:38 10° SW 19:23:14 60° SE 19:26:28 35° ENE
CZ-4B R/B 4.5 19:26:09 22° NNE 19:26:09 22° NNE 19:28:47 10° N
Terra 4.1 19:30:50 11° NNE 19:30:50 11° NNE 19:31:02 10° NNE
Cosmos 1816 Rocket 4.3 19:22:11 10° S 19:28:19 83° E 19:34:34 10° N
Atlas Centaur 2 4.2 19:24:24 10° WSW 19:30:27 25° SSW 19:33:53 17° SSE
Helios 1A Rocket 3.0 19:31:19 50° SW 19:31:19 50° SW 19:33:52 10° SSW
Cosmos 2150 Rocket 4.0 19:25:40 10° NNW 19:30:50 80° WSW 19:34:58 16° SSE
Cosmos 1544 Rocket 4.1 19:26:59 10° N 19:30:02 41° NNE 19:30:02 41° NNE
CSL-04 Debris 4.2 19:30:41 47° ESE 19:31:44 55° ENE 19:37:01 10° N
BREEZE-M (TANK) 3.4 19:29:40 10° WNW 19:32:50 71° SSW 19:36:14 31° SE
Cosmos 2298 Rocket 4.0 19:28:47 10° NNW 19:34:05 80° WSW 19:38:04 18° SSE
Cosmos 1975 Rocket 3.7 19:31:18 10° SSW 19:35:34 53° W 19:39:49 10° N
CSL-04 Rocket 3.5 19:35:10 50° SE 19:36:21 64° ENE 19:41:35 10° N
Cosmos 2034 Rocket 3.8 19:30:15 10° N 19:36:26 73° E 19:42:38 10° SSE
NOSS 3-4 (A) 4.0 19:29:50 10° NW 19:36:46 77° WSW 19:43:28 16° SSE
NOSS 3-4 (C) 4.0 19:30:07 10° NW 19:37:03 78° WSW 19:43:37 17° SSE
Cosmos 1782 3.2 19:34:35 10° NNW 19:37:19 48° NNW 19:37:19 48° NNW
Cosmos 44 Rocket 4.3 19:33:47 10° WSW 19:38:29 44° NW 19:41:48 19° NNE
Cosmos 2228 3.6 19:34:28 10° NNW 19:38:34 56° W 19:42:40 10° S
Cosmos 1634 Rocket 4.3 19:37:43 10° N 19:43:02 45° NE 19:43:02 45° NE
Cosmos 2297 Rocket 4.0 19:39:21 10° WSW 19:44:15 29° NW 19:49:11 10° N
DNEPR-1 R/B 4.2 19:47:53 10° NW 19:52:55 73° WSW 19:54:28 49° S
BREEZE-M DEB (TANK) 3.9 19:34:42 10° W 19:54:47 78° N 19:56:30 53° ENE
Cosmos 2219 3.7 19:53:17 10° SSW 19:57:13 44° S 19:57:13 44° S
CZ-4C R/B 4.4 19:58:23 10° NW 20:01:12 15° NNW 20:04:22 10° NNE
BREEZE-M DEB (TANK) 3.7 19:57:03 10° SW 20:01:14 82° SSE 20:04:47 42° ENE
Feng Yun 1-1 Rocket 4.4 20:09:36 70° N 20:09:36 70° N 20:14:51 10° NNW
Cosmos 2263 Rocket 2.5 20:06:24 10° SW 20:12:01 63° WNW 20:13:31 46° N
SPOT 5 3.9 20:24:54 45° W 20:24:54 45° W 20:29:21 10° NNW
Cosmos 2344 3.8 20:23:25 10° SW 20:31:10 61° NW 20:33:48 40° NNE
Cosmos 2227 Rocket 4.2 20:39:12 10° WSW 20:43:43 24° NW 20:47:09 14° N
SL-16 R/B 3.4 20:41:20 10° NW 20:45:53 38° W 20:45:53 38° W
